Location: Morlupo
(42.1333°N, 12.5000°E)
Time: 04:01:56
(UTC+00:00)

Ariane Rocket - Pass Details

Date: 24 January 2021
Orbit: 760 x 770 km, 98.7° (Epoch: 03 March)

Event Time Altitude Azimuth Distance (km) Brightness Sun altitude
Exits shadow 19:00:50 11° 353° (N) 2,226 5.5 -30.7°
Drops below altitude 10° 19:00:58 11° 353° (N) 2,280 5.5 -30.8°
Sets 19:03:24 0° 350° (N) 3,247 6.4 -31.2°
